7 * 24
多渠道服务支持
STARLINK-35523是美国SpaceX星链星座的一员,于2025年10月8日发射入轨。星链计划旨在构建全球卫星互联网星座,为全球范围提供高速低延迟的宽带服务。该卫星延续星链标准设计,服务地面通信覆盖,补充完善星座组网布局,助力星链全球互联网服务能力进一步提升。
美国
(US)
| 数据来源 | 国际轨道数据 |
| 星历时间: | 2026-09-11T22:34:07+0800 6小时前 查看轨道信息 |
| 半长轴: | 6840.817km |
| 偏心率: | 0.0001006 |
| 轨道倾角: | 53.161° |
| 近地点辐角 | 76.698° |
| 升交点赤经 | 19.222° |
| 平近点角 | 283.414° |
| 近地点: | 461.991km |
| 远地点: | 463.369km |
| 周期: | 93.847分钟 |
| 每日圈数: | 15.344079 |